Weather History for Worthington, MN

Change the Weather History Date:

Friday, December 20, 2013

  Actual Average Record
Temperature  
Mean Temperature 8 °F -  
Max Temperature 12 °F 22 °F 49 °F (1979)
Min Temperature 5 °F 9 °F -27 °F (1983)
Degree Days  
Heating Degree Days 56    
Moisture  
Dew Point 2 °F    
Average Humidity 73    
Maximum Humidity 85    
Minimum Humidity 67    
Precipitation  
Precipitation 0.00 in - - ()
Sea Level Pressure  
Sea Level Pressure 29.90 in    
Wind  
Wind Speed 12 mph (NNW)    
Max Wind Speed 18 mph    
Max Gust Speed 22 mph    
Visibility 10 miles    
Events      
Averages and records for this station are not official NWS values.
T = Trace of Precipitation, MM = Missing Value Source: NWS Daily Summary

Daily Weather History Graph

Daily Weather History Graph

Search for Another Location

Airport:

Trip Planner

Search our weather history database for the weather conditions in past years. The results will help you decide how hot, cold, wet, or windy it might be!

Date:

Astronomy

Dec. 20, 2013 Rise Set
Actual Time 7:52 AM CST 4:48 PM CST
Civil Twilight 7:19 AM CST 5:20 PM CST
Nautical Twilight 6:43 AM CST 5:57 PM CST
Astronomical Twilight 6:08 AM CST 6:32 PM CST
Moon 8:15 PM CST (12/20) 9:41 AM CST (12/20)
Length of Visible Light 10h 01m
Length of Day
8h 55m
Waning Gibbous, 90% of the Moon is Illuminated
Dec 20
Waning Gibbous
Dec 25
Last Quarter
Jan 1
New
Jan 7
First Quarter
Jan 15
Full

Hourly Weather History & Observations

Time (CST) Temp. Windchill Dew Point Humidity Pressure Visibility Wind Dir Wind Speed Gust Speed Precip Events Conditions
12:15 AM 10.4 °F -6.0 °F 3.2 °F 73% 29.96 in 10.0 mi North 15.0 mph - N/A   Overcast
12:35 AM 10.4 °F -6.6 °F 3.2 °F 73% 29.96 in 10.0 mi North 16.1 mph - N/A   Overcast
12:55 AM 10.4 °F -5.4 °F 3.2 °F 73% 29.95 in 10.0 mi North 13.8 mph - N/A   Overcast
1:15 AM 10.4 °F -6.6 °F 5.0 °F 79% 29.93 in 10.0 mi North 16.1 mph - N/A   Overcast
1:35 AM 10.4 °F -6.0 °F 5.0 °F 79% 29.93 in 10.0 mi North 15.0 mph 21.9 mph N/A   Overcast
1:55 AM 10.4 °F -5.4 °F 3.2 °F 73% 29.92 in 10.0 mi North 13.8 mph - N/A   Overcast
2:15 AM 10.4 °F -5.4 °F 3.2 °F 73% 29.92 in 10.0 mi North 13.8 mph - N/A   Overcast
2:35 AM 8.6 °F -8.3 °F 1.4 °F 73% 29.92 in 10.0 mi North 15.0 mph - N/A   Overcast
2:55 AM 8.6 °F -8.3 °F 1.4 °F 73% 29.93 in 10.0 mi North 15.0 mph - N/A   Overcast
3:15 AM 8.6 °F -8.3 °F 1.4 °F 73% 29.93 in 10.0 mi North 15.0 mph - N/A   Overcast
3:35 AM 8.6 °F -8.9 °F 1.4 °F 73% 29.94 in 10.0 mi North 16.1 mph - N/A   Overcast
3:55 AM 8.6 °F -8.9 °F 1.4 °F 73% 29.94 in 10.0 mi North 16.1 mph 19.6 mph N/A   Overcast
4:15 AM 8.6 °F -8.3 °F 1.4 °F 73% 29.94 in 10.0 mi North 15.0 mph - N/A   Overcast
4:35 AM 8.6 °F -8.9 °F 1.4 °F 73% 29.94 in 10.0 mi North 16.1 mph - N/A   Overcast
4:55 AM 8.6 °F -8.9 °F 1.4 °F 73% 29.94 in 10.0 mi North 16.1 mph - N/A   Overcast
5:15 AM 8.6 °F -8.9 °F 3.2 °F 79% 29.94 in 10.0 mi North 16.1 mph - N/A   Overcast
5:35 AM 8.6 °F -10.0 °F 1.4 °F 73% 29.94 in 10.0 mi North 18.4 mph - N/A   Overcast
5:55 AM 8.6 °F -8.3 °F 1.4 °F 73% 29.94 in 10.0 mi North 15.0 mph - N/A   Overcast
6:15 AM 8.6 °F -8.9 °F -0.4 °F 67% 29.95 in 10.0 mi North 16.1 mph - N/A   Overcast
6:35 AM 8.6 °F -7.7 °F 1.4 °F 73% 29.95 in 10.0 mi North 13.8 mph - N/A   Overcast
6:55 AM 8.6 °F -7.7 °F 1.4 °F 73% 29.95 in 10.0 mi North 13.8 mph - N/A   Overcast
7:15 AM 8.6 °F -8.3 °F 1.4 °F 73% 29.95 in 10.0 mi North 15.0 mph - N/A   Overcast
7:35 AM 8.6 °F -8.9 °F -0.4 °F 67% 29.95 in 10.0 mi North 16.1 mph - N/A   Overcast
7:55 AM 6.8 °F -10.0 °F -0.4 °F 72% 29.95 in 10.0 mi North 13.8 mph - N/A   Overcast
8:15 AM 8.6 °F -7.7 °F 1.4 °F 73% 29.95 in 10.0 mi North 13.8 mph - N/A   Overcast
8:35 AM 8.6 °F -7.7 °F 1.4 °F 73% 29.95 in 10.0 mi North 13.8 mph - N/A   Overcast
8:55 AM 8.6 °F -7.0 °F 1.4 °F 73% 29.94 in 10.0 mi North 12.7 mph - N/A   Overcast
9:15 AM 8.6 °F -6.3 °F 1.4 °F 73% 29.95 in 8.0 mi North 11.5 mph - N/A   Overcast
9:35 AM 8.6 °F -7.7 °F -0.4 °F 67% 29.93 in 6.0 mi North 13.8 mph - N/A   Overcast
9:55 AM 8.6 °F -7.0 °F 1.4 °F 73% 29.94 in 9.0 mi North 12.7 mph - N/A   Overcast
10:15 AM 8.6 °F -6.3 °F 1.4 °F 73% 29.94 in 9.0 mi North 11.5 mph - N/A   Overcast
10:35 AM 8.6 °F -7.0 °F 1.4 °F 73% 29.93 in 10.0 mi North 12.7 mph - N/A   Overcast
10:55 AM 8.6 °F -5.5 °F 1.4 °F 73% 29.93 in 10.0 mi North 10.4 mph - N/A   Overcast
11:15 AM 8.6 °F -5.5 °F 1.4 °F 73% 29.93 in 10.0 mi North 10.4 mph - N/A   Overcast
11:35 AM 8.6 °F -3.7 °F 1.4 °F 73% 29.92 in 10.0 mi North 8.1 mph - N/A   Overcast
11:55 AM 8.6 °F 0.1 °F 1.4 °F 73% 29.92 in 10.0 mi North 4.6 mph - N/A   Overcast
12:15 PM 8.6 °F -2.6 °F 1.4 °F 73% 29.92 in 9.0 mi North 6.9 mph - N/A   Overcast
12:35 PM 8.6 °F -2.6 °F 3.2 °F 79% 29.91 in 7.0 mi North 6.9 mph - N/A   Overcast
12:55 PM 10.4 °F -1.5 °F 3.2 °F 73% 29.89 in 9.0 mi North 8.1 mph - N/A   Overcast
1:15 PM 10.4 °F -2.4 °F 3.2 °F 73% 29.88 in 10.0 mi North 9.2 mph - N/A   Overcast
1:35 PM 10.4 °F -0.4 °F 3.2 °F 73% 29.88 in 10.0 mi North 6.9 mph - N/A   Overcast
1:55 PM 10.4 °F 0.8 °F 3.2 °F 73% 29.88 in 8.0 mi NNW 5.8 mph - N/A   Overcast
2:15 PM 10.4 °F -4.1 °F 3.2 °F 73% 29.88 in 10.0 mi NNW 11.5 mph - N/A   Overcast
2:35 PM 10.4 °F -4.1 °F 3.2 °F 73% 29.88 in 10.0 mi NNW 11.5 mph - N/A   Overcast
2:55 PM 12.2 °F -1.0 °F 5.0 °F 73% 29.86 in 10.0 mi NNW 10.4 mph - N/A   Overcast
3:15 PM 12.2 °F -1.0 °F 5.0 °F 73% 29.87 in 10.0 mi NNW 10.4 mph - N/A   Overcast
3:35 PM 12.2 °F -1.0 °F 3.2 °F 67% 29.86 in 10.0 mi North 10.4 mph - N/A   Overcast
3:55 PM 12.2 °F -0.2 °F 5.0 °F 73% 29.86 in 10.0 mi NNW 9.2 mph - N/A   Overcast
4:15 PM 12.2 °F -1.8 °F 3.2 °F 67% 29.86 in 10.0 mi North 11.5 mph - N/A   Overcast
4:35 PM 12.2 °F 0.7 °F 3.2 °F 67% 29.86 in 10.0 mi North 8.1 mph - N/A   Overcast
4:55 PM 12.2 °F 1.7 °F 3.2 °F 67% 29.87 in 10.0 mi North 6.9 mph - N/A   Overcast
5:15 PM 12.2 °F 2.9 °F 5.0 °F 73% 29.87 in 10.0 mi North 5.8 mph - N/A   Overcast
5:35 PM 12.2 °F - 5.0 °F 73% 29.87 in 10.0 mi Calm Calm - N/A   Overcast
5:55 PM 12.2 °F - 5.0 °F 73% 29.87 in 10.0 mi Calm Calm - N/A   Overcast
6:15 PM 12.2 °F - 5.0 °F 73% 29.87 in 10.0 mi Calm Calm - N/A   Overcast
6:35 PM 12.2 °F 4.3 °F 5.0 °F 73% 29.87 in 10.0 mi NW 4.6 mph - N/A   Overcast
6:55 PM 12.2 °F 6.1 °F 5.0 °F 73% 29.87 in 10.0 mi NW 3.5 mph - N/A   Overcast
7:15 PM 12.2 °F 2.9 °F 5.0 °F 73% 29.87 in 10.0 mi NW 5.8 mph - N/A   Overcast
7:35 PM 10.4 °F 2.2 °F 5.0 °F 79% 29.86 in 10.0 mi NW 4.6 mph - N/A   Overcast
7:55 PM 10.4 °F - 3.2 °F 73% 29.85 in 10.0 mi Calm Calm - N/A   Overcast
8:15 PM 10.4 °F 4.0 °F 3.2 °F 73% 29.85 in 10.0 mi WNW 3.5 mph - N/A   Mostly Cloudy
8:35 PM 10.4 °F 2.2 °F 3.2 °F 73% 29.84 in 10.0 mi NNW 4.6 mph - N/A   Partly Cloudy
8:55 PM 8.6 °F - 3.2 °F 79% 29.82 in 10.0 mi Calm Calm - N/A   Clear
9:15 PM 8.6 °F - 1.4 °F 73% 29.83 in 10.0 mi Calm Calm - N/A   Partly Cloudy
9:35 PM 8.6 °F - 1.4 °F 73% 29.82 in 10.0 mi Calm Calm - N/A   Partly Cloudy
9:55 PM 6.8 °F -0.1 °F 1.4 °F 79% 29.82 in 10.0 mi WSW 3.5 mph - N/A   Clear
10:15 PM 6.8 °F -2.0 °F -0.4 °F 72% 29.82 in 10.0 mi WSW 4.6 mph - N/A   Scattered Clouds
10:35 PM 6.8 °F -2.0 °F -0.4 °F 72% 29.82 in 10.0 mi West 4.6 mph - N/A   Partly Cloudy
10:55 PM 6.8 °F -2.0 °F -2.2 °F 67% 29.82 in 10.0 mi SW 4.6 mph - N/A   Clear
11:15 PM 6.8 °F -2.0 °F -0.4 °F 72% 29.83 in 10.0 mi WSW 4.6 mph - N/A   Clear
11:35 PM 5.0 °F -2.1 °F 1.4 °F 85% 29.83 in 10.0 mi WSW 3.5 mph - N/A   Scattered Clouds
11:55 PM 5.0 °F -2.1 °F -0.4 °F 78% 29.83 in 10.0 mi WSW 3.5 mph - N/A   Mostly Cloudy